Location: Gad�tanya
(48.0500°N, 20.8500°E)
Time: 23:10:16
(UTC+00:00)

Cosmos 1892 - Pass Details

Date: 05 July 2020
Orbit: 505 x 523 km, 82.5° (Epoch: 05 August)

Event Time Altitude Azimuth Distance (km) Brightness Sun altitude
Exits shadow 21:07:07 33° 179° (S) 880 3.3 -16.2°
Maximum altitude 21:08:44 78° 98° (E) 526 2.6 -16.3°
Drops below altitude 10° 21:12:33 10° 12° (NNE) 1,742 6.2 -16.5°
Sets 21:14:42 0° 11° (N) 2,637 7.3 -16.7°
